EW7239 Weather Reports


time (UTC)temp
F
wind
direction
speed
knots
gust
knots
rain 1hr
in
rain 24hr
in
rain mn
in
humidity
%
barometer
mb
20260906084934 75 234 0.0 2.6 0.00 0.00 0.00 42 1013.7
20260906084432 76 234 0.0 2.6 0.00 0.00 0.00 42 1013.8
20260906083931 76 234 0.0 2.6 0.00 0.00 0.00 42 1013.7
20260906083430 76 234 0.0 2.6 0.00 0.00 0.00 42 1013.8
20260906082930 75 234 0.0 0.0 0.00 0.00 0.00 42 1013.7
20260906082427 75 234 0.0 0.0 0.00 0.00 0.00 42 1013.7
20260906081928 75 234 0.0 0.0 0.00 0.00 0.00 43 1013.7
20260906081434 75 234 0.0 0.0 0.00 0.00 0.00 43 1013.8
20260906081152 75 234 0.0 0.0 0.00 0.00 0.00 43 1013.8
20260906080419 75 234 0.0 0.0 0.00 0.00 0.00 43 1013.7
20260906075919 75 234 0.0 0.0 0.00 0.00 0.00 43 1013.7
20260906075419 75 234 0.0 0.0 0.00 0.00 0.00 42 1013.7
20260906074921 75 234 0.0 0.0 0.00 0.00 0.00 42 1013.6
20260906074417 75 234 0.0 0.0 0.00 0.00 0.00 41 1013.7
20260906074149 75 234 0.0 0.0 0.00 0.00 0.00 41 1013.7
20260906073415 75 234 0.0 0.0 0.00 0.00 0.00 40 1013.8
20260906072913 75 234 0.0 0.0 0.00 0.00 0.00 40 1013.9
20260906072414 76 234 0.0 0.0 0.00 0.00 0.00 39 1013.8
20260906071908 76 234 0.0 0.0 0.00 0.00 0.00 38 1013.6
20260906071406 76 234 0.0 0.0 0.00 0.00 0.00 38 1013.6
20260906071135 76 234 0.0 0.0 0.00 0.00 0.00 38 1013.6
20260906070400 76 234 0.0 0.0 0.00 0.00 0.00 38 1013.6
20260906065901 75 234 0.0 0.0 0.00 0.00 0.00 38 1013.6
20260906065631 75 234 0.0 0.0 0.00 0.00 0.00 38 1013.6
20260906064900 76 234 0.0 0.0 0.00 0.00 0.00 37 1013.5
20260906064358 76 234 0.0 0.0 0.00 0.00 0.00 36 1013.5
20260906063859 76 234 0.0 0.0 0.00 0.00 0.00 36 1013.5
20260906063357 76 234 0.0 0.0 0.00 0.00 0.00 35 1013.6
20260906062854 76 234 0.0 0.0 0.00 0.00 0.00 35 1013.6
20260906062627 76 234 0.0 0.0 0.00 0.00 0.00 35 1013.6
20260906061853 77 234 0.0 0.0 0.00 0.00 0.00 35 1013.7
20260906061352 77 234 0.0 1.7 0.00 0.00 0.00 35 1013.8
20260906060852 77 234 0.0 1.7 0.00 0.00 0.00 36 1013.8
20260906060345 77 234 0.0 1.7 0.00 0.00 0.00 36 1013.8
20260906055843 77 234 0.9 1.7 0.00 0.00 0.00 37 1013.8
20260906055344 78 234 0.9 2.6 0.00 0.00 0.00 36 1013.8
20260906054339 78 234 0.9 2.6 0.00 0.00 0.00 36 1013.8
20260906053839 78 234 0.9 2.6 0.00 0.00 0.00 35 1013.7
20260906053335 78 234 0.0 2.6 0.00 0.00 0.00 35 1013.7
20260906052836 78 234 0.0 1.7 0.00 0.00 0.00 34 1013.7
20260906052334 78 234 0.9 2.6 0.00 0.00 0.00 34 1013.7
20260906051835 78 234 0.9 2.6 0.00 0.00 0.00 33 1013.6
20260906051607 79 234 0.0 0.9 0.00 0.00 0.00 32 1013.7
20260906051106 79 234 0.9 3.5 0.00 0.00 0.00 31 1013.7
20260906050617 79 234 1.7 3.5 0.00 0.00 0.00 31 1013.7
20260906045831 79 234 0.9 3.5 0.00 0.00 0.00 30 1013.6
20260906045332 79 234 0.0 1.7 0.00 0.00 0.00 30 1013.6
20260906044827 80 234 0.9 2.6 0.00 0.00 0.00 30 1013.6
20260906044327 80 234 0.9 2.6 0.00 0.00 0.00 29 1013.6
20260906043827 80 234 0.9 2.6 0.00 0.00 0.00 29 1013.6
20260906043322 80 234 2.6 5.2 0.00 0.00 0.00 28 1013.6
20260906042822 81 234 3.5 7.0 0.00 0.00 0.00 28 1013.6
20260906042555 81 234 3.5 7.0 0.00 0.00 0.00 28 1013.5
20260906041820 81 235 2.6 5.2 0.00 0.00 0.00 28 1013.4
20260906041321 82 235 2.6 6.1 0.00 0.00 0.00 27 1013.4
20260906040821 82 235 2.6 6.1 0.00 0.00 0.00 27 1013.3
20260906040319 82 234 2.6 6.1 0.00 0.00 0.00 27 1013.2
20260906035819 82 234 1.7 5.2 0.00 0.00 0.00 27 1013.2
20260906035319 82 233 2.6 6.1 0.00 0.00 0.00 27 1013.2
20260906035045 82 233 2.6 6.1 0.00 0.00 0.00 27 1013.2
20260906034315 82 232 3.5 5.2 0.00 0.00 0.00 26 1013.2
20260906033310 83 232 3.5 6.1 0.00 0.00 0.00 26 1013.2
20260906032812 83 233 2.6 6.1 0.00 0.00 0.00 25 1013.2
20260906032311 83 232 2.6 6.1 0.00 0.00 0.00 25 1013.1
20260906031808 83 232 3.5 6.1 0.00 0.00 0.00 24 1013.1
20260906031308 83 232 3.5 7.0 0.00 0.00 0.00 24 1013.1
20260906030305 83 229 3.5 7.8 0.00 0.00 0.00 25 1012.9
20260906025802 84 233 4.3 7.8 0.00 0.00 0.00 25 1012.9
20260906025306 84 232 4.3 9.6 0.00 0.00 0.00 26 1012.9
20260906024802 84 231 4.3 9.6 0.00 0.00 0.00 26 1012.9
20260906024300 84 235 4.3 8.7 0.00 0.00 0.00 27 1012.9
20260906024030 84 236 5.2 8.7 0.00 0.00 0.00 27 1012.9
20260906023253 85 229 4.3 8.7 0.00 0.00 0.00 27 1012.9
20260906022250 85 229 4.3 8.7 0.00 0.00 0.00 28 1012.8
20260906021749 85 229 5.2 8.7 0.00 0.00 0.00 28 1012.7
20260906021248 85 232 5.2 10.4 0.00 0.00 0.00 28 1012.7
20260906020746 86 224 5.2 10.4 0.00 0.00 0.00 28 1012.6
20260906020517 86 230 4.3 9.6 0.00 0.00 0.00 28 1012.6
20260906015747 86 227 5.2 8.7 0.00 0.00 0.00 27 1012.6
20260906015247 87 232 5.2 8.7 0.00 0.00 0.00 27 1012.6
20260906014743 87 224 4.3 8.7 0.00 0.00 0.00 27 1012.6
20260906014242 87 225 5.2 8.7 0.00 0.00 0.00 27 1012.5
20260906013744 88 228 5.2 8.7 0.00 0.00 0.00 28 1012.5
20260906013239 88 224 5.2 7.8 0.00 0.00 0.00 27 1012.6
20260906012738 88 226 5.2 9.6 0.00 0.00 0.00 27 1012.6
20260906012240 88 223 5.2 9.6 0.00 0.00 0.00 28 1012.6
20260906011733 89 224 4.3 7.8 0.00 0.00 0.00 27 1012.6
20260906011234 88 223 4.3 7.8 0.00 0.00 0.00 29 1012.6
20260906010732 88 222 4.3 7.8 0.00 0.00 0.00 28 1012.5
20260906010233 88 234 5.2 9.6 0.00 0.00 0.00 28 1012.5
20260906005733 88 221 6.1 9.6 0.00 0.00 0.00 28 1012.5
20260906005234 88 220 5.2 9.6 0.00 0.00 0.00 28 1012.5
20260906004733 89 226 6.1 10.4 0.00 0.00 0.00 29 1012.5
20260906004234 89 223 6.1 10.4 0.00 0.00 0.00 29 1012.6
20260906003734 89 209 6.1 11.3 0.00 0.00 0.00 28 1012.6
20260906003234 90 226 5.2 11.3 0.00 0.00 0.00 28 1012.5
20260906002732 90 226 5.2 11.3 0.00 0.00 0.00 28 1012.5
20260906002505 91 223 5.2 11.3 0.00 0.00 0.00 26 1012.3
20260906002005 91 217 5.2 9.6 0.00 0.00 0.00 26 1012.3
20260906001233 92 246 4.3 9.6 0.00 0.00 0.00 25 1012.3
20260906000733 92 261 3.5 7.8 0.00 0.00 0.00 24 1012.3
20260906000234 92 242 4.3 7.8 0.00 0.00 0.00 25 1012.2
20260905235730 92 222 5.2 9.6 0.00 0.00 0.00 25 1012.2
20260905235230 92 232 5.2 9.6 0.00 0.00 0.00 25 1012.2
20260905234730 93 244 5.2 9.6 0.00 0.00 0.00 25 1012.2
20260905234225 94 257 4.3 8.7 0.00 0.00 0.00 24 1012.2
20260905233724 94 229 3.5 8.7 0.00 0.00 0.00 24 1012.2
20260905233225 94 254 4.3 8.7 0.00 0.00 0.00 25 1012.1
20260905232722 93 255 4.3 8.7 0.00 0.00 0.00 24 1012.2
20260905232223 93 218 4.3 7.8 0.00 0.00 0.00 22 1012.2
20260905231724 93 216 5.2 9.6 0.00 0.00 0.00 23 1012.2
20260905231222 92 248 6.1 10.4 0.00 0.00 0.00 23 1012.1
20260905230722 93 227 6.1 11.3 0.00 0.00 0.00 22 1012.1
20260905230223 94 235 6.1 11.3 0.00 0.00 0.00 22 1012.2
20260905225724 94 225 5.2 12.2 0.00 0.00 0.00 21 1012.3
20260905225222 95 223 5.2 12.2 0.00 0.00 0.00 22 1012.2
20260905224723 95 257 4.3 8.7 0.00 0.00 0.00 22 1012.3
20260905224221 95 214 4.3 9.6 0.00 0.00 0.00 20 1012.3
20260905223722 94 224 4.3 9.6 0.00 0.00 0.00 21 1012.3
20260905223220 94 207 5.2 8.7 0.00 0.00 0.00 21 1012.5
20260905222721 95 226 4.3 8.7 0.00 0.00 0.00 20 1012.5
20260905222218 96 225 4.3 8.7 0.00 0.00 0.00 21 1012.5
20260905221951 96 221 4.3 8.7 0.00 0.00 0.00 19 1012.6
20260905221219 96 213 3.5 8.7 0.00 0.00 0.00 20 1012.7
20260905220719 95 211 4.3 7.8 0.00 0.00 0.00 21 1012.7
20260905220217 95 201 3.5 7.8 0.00 0.00 0.00 20 1012.7
20260905215949 96 232 2.6 7.8 0.00 0.00 0.00 21 1012.9
20260905215218 95 227 2.6 7.0 0.00 0.00 0.00 19 1013.0
20260905214716 95 219 2.6 7.8 0.00 0.00 0.00 20 1013.0
20260905214448 95 219 3.5 7.8 0.00 0.00 0.00 20 1013.1
20260905213718 95 246 4.3 8.7 0.00 0.00 0.00 20 1013.1
20260905213218 95 254 3.5 8.7 0.00 0.00 0.00 21 1013.2
20260905212717 96 227 2.6 7.8 0.00 0.00 0.00 20 1013.2
20260905212217 95 269 2.6 7.8 0.00 0.00 0.00 21 1013.2
20260905211714 95 241 2.6 8.7 0.00 0.00 0.00 19 1013.2
20260905211214 94 186 3.5 8.7 0.00 0.00 0.00 19 1013.2
20260905210713 94 238 1.7 5.2 0.00 0.00 0.00 19 1013.3
20260905210443 93 250 1.7 5.2 0.00 0.00 0.00 20 1013.3
20260905205710 93 244 2.6 7.0 0.00 0.00 0.00 20 1013.3
20260905205209 93 238 2.6 7.0 0.00 0.00 0.00 22 1013.4
20260905204939 93 221 3.5 7.8 0.00 0.00 0.00 20 1013.5
20260905204209 93 222 4.3 7.8 0.00 0.00 0.00 20 1013.6
20260905203709 93 231 3.5 7.0 0.00 0.00 0.00 21 1013.6
20260905203208 94 235 3.5 7.0 0.00 0.00 0.00 21 1013.6
20260905202935 93 234 2.6 7.0 0.00 0.00 0.00 22 1013.6
20260905202207 93 215 2.6 6.1 0.00 0.00 0.00 20 1013.7
20260905201702 93 211 1.7 6.1 0.00 0.00 0.00 23 1013.8
20260905201200 93 207 2.6 6.1 0.00 0.00 0.00 21 1013.9
20260905200701 92 219 2.6 6.1 0.00 0.00 0.00 21 1014.0
20260905200157 92 237 2.6 5.2 0.00 0.00 0.00 22 1014.0
20260905195658 92 237 3.5 5.2 0.00 0.00 0.00 23 1014.1
20260905195157 92 229 1.7 5.2 0.00 0.00 0.00 24 1014.1
20260905194656 91 218 1.7 5.2 0.00 0.00 0.00 22 1014.2
20260905194154 90 218 2.6 5.2 0.00 0.00 0.00 23 1014.3
20260905193653 90 218 3.5 6.1 0.00 0.00 0.00 24 1014.4
20260905193426 90 218 2.6 6.1 0.00 0.00 0.00 22 1014.4
20260905192652 90 219 1.7 6.1 0.00 0.00 0.00 24 1014.5
20260905192153 90 219 2.6 6.1 0.00 0.00 0.00 24 1014.6
20260905191648 90 219 1.7 5.2 0.00 0.00 0.00 25 1014.6
20260905191148 90 218 1.7 3.5 0.00 0.00 0.00 25 1014.6
20260905190649 89 219 1.7 5.2 0.00 0.00 0.00 25 1014.6
20260905190148 88 219 2.6 5.2 0.00 0.00 0.00 25 1014.7
20260905185645 87 219 2.6 6.1 0.00 0.00 0.00 26 1014.8
20260905185145 88 219 1.7 6.1 0.00 0.00 0.00 26 1014.9
20260905184910 87 219 2.6 6.1 0.00 0.00 0.00 26 1015.0
20260905184410 87 219 3.5 6.1 0.00 0.00 0.00 26 1015.0
20260905183639 87 219 2.6 6.1 0.00 0.00 0.00 26 1015.1
20260905183138 88 219 1.7 5.2 0.00 0.00 0.00 26 1015.1
20260905182639 87 222 1.7 4.3 0.00 0.00 0.00 27 1015.1
20260905182139 87 222 1.7 5.2 0.00 0.00 0.00 26 1015.1
20260905181909 87 222 1.7 5.2 0.00 0.00 0.00 26 1015.1
20260905181409 86 228 1.7 4.3 0.00 0.00 0.00 28 1015.1
20260905180639 86 228 0.9 3.5 0.00 0.00 0.00 29 1015.2
20260905180139 86 228 0.9 3.5 0.00 0.00 0.00 30 1015.2
20260905175635 85 228 1.7 3.5 0.00 0.00 0.00 31 1015.1
20260905175134 84 228 1.7 3.5 0.00 0.00 0.00 31 1015.1
20260905174634 83 228 0.9 3.5 0.00 0.00 0.00 32 1015.1
20260905174133 83 228 0.9 2.6 0.00 0.00 0.00 31 1015.1
20260905173632 83 228 0.9 2.6 0.00 0.00 0.00 32 1015.1
20260905173131 82 228 0.0 2.6 0.00 0.00 0.00 34 1015.1
20260905172626 82 228 0.0 2.6 0.00 0.00 0.00 35 1015.1
20260905172127 81 228 0.9 2.6 0.00 0.00 0.00 38 1015.1
20260905171628 80 228 0.9 3.5 0.00 0.00 0.00 39 1015.1
20260905171125 79 228 1.7 3.5 0.00 0.00 0.00 44 1015.2
20260905170624 79 228 1.7 3.5 0.00 0.00 0.00 45 1015.2
20260905170124 78 228 1.7 3.5 0.00 0.00 0.00 46 1015.2
20260905165622 78 228 0.9 4.3 0.00 0.00 0.00 50 1015.3
20260905165122 77 228 0.9 4.3 0.00 0.00 0.00 51 1015.2
20260905164622 76 228 1.7 3.5 0.00 0.00 0.00 52 1015.3
20260905164122 76 228 2.6 3.5 0.00 0.00 0.00 53 1015.3
20260905163620 75 228 1.7 3.5 0.00 0.00 0.00 54 1015.2
20260905163120 76 228 0.9 3.5 0.00 0.00 0.00 54 1015.2
20260905162617 75 228 0.0 0.0 0.00 0.00 0.00 56 1015.2
20260905162115 75 228 0.0 0.0 0.00 0.00 0.00 59 1015.1
20260905161615 74 228 0.0 1.7 0.00 0.00 0.00 61 1015.1
20260905161113 73 228 0.9 2.6 0.00 0.00 0.00 63 1015.0
20260905160611 72 228 1.7 2.6 0.00 0.00 0.00 65 1015.0
20260905160344 72 228 1.7 3.5 0.00 0.00 0.00 65 1015.1
20260905155837 71 228 1.7 2.6 0.00 0.00 0.00 66 1015.1
20260905155103 71 228 0.9 2.6 0.00 0.00 0.00 68 1015.0
20260905154602 71 228 0.9 3.5 0.00 0.00 0.00 69 1015.0
20260905154102 71 228 1.7 4.3 0.00 0.00 0.00 70 1015.0
20260905153559 70 228 1.7 4.3 0.00 0.00 0.00 70 1015.0
20260905153059 70 228 0.9 3.5 0.00 0.00 0.00 71 1014.9
20260905152556 70 228 0.9 3.5 0.00 0.00 0.00 71 1015.0
20260905152056 70 228 1.7 3.5 0.00 0.00 0.00 71 1014.9
20260905151556 70 228 1.7 3.5 0.00 0.00 0.00 71 1014.9
20260905151057 69 228 0.9 3.5 0.00 0.00 0.00 71 1014.9
20260905150552 69 228 0.9 3.5 0.00 0.00 0.00 72 1014.9
20260905150104 68 228 1.7 3.5 0.00 0.00 0.00 71 1014.8
20260905145549 67 228 1.7 3.5 0.00 0.00 0.00 72 1014.8
20260905145049 67 228 0.9 3.5 0.00 0.00 0.00 75 1014.7
20260905144548 67 228 0.9 2.6 0.00 0.00 0.00 79 1014.7
20260905143547 67 228 0.0 0.9 0.00 0.00 0.00 82 1014.5
20260905143045 66 228 0.0 0.9 0.00 0.00 0.00 83 1014.5
20260905142544 66 228 0.0 0.0 0.00 0.00 0.00 83 1014.5
20260905142043 65 228 0.0 0.0 0.00 0.00 0.00 84 1014.5
20260905141537 65 228 0.0 0.0 0.00 0.00 0.00 84 1014.6
20260905141308 64 228 0.0 0.0 0.00 0.00 0.00 84 1014.6
20260905140537 64 228 0.0 0.0 0.00 0.00 0.00 84 1014.5
20260905140037 64 228 0.0 0.0 0.00 0.00 0.00 84 1014.5
20260905135534 64 228 0.0 0.0 0.00 0.00 0.00 84 1014.4
20260905135036 64 228 0.0 0.0 0.00 0.00 0.00 84 1014.4
20260905134536 63 228 0.0 0.0 0.00 0.00 0.00 84 1014.3
20260905134306 63 228 0.0 0.0 0.00 0.00 0.00 84 1014.3
20260905133547 63 228 0.0 0.0 0.00 0.00 0.00 84 1014.3
20260905133032 63 228 0.0 0.0 0.00 0.00 0.00 84 1014.2
20260905132532 63 228 0.0 0.0 0.00 0.00 0.00 85 1014.2
20260905132033 63 228 0.0 0.0 0.00 0.00 0.00 85 1014.1
20260905131804 63 228 0.0 0.0 0.00 0.00 0.00 85 1014.0
20260905131034 63 228 0.0 0.0 0.00 0.00 0.00 85 1014.0
20260905130317 63 228 0.0 0.0 0.00 0.00 0.00 85 1014.0
20260905125534 63 228 0.0 0.0 0.00 0.00 0.00 85 1013.9
20260905125306 63 228 0.0 0.0 0.00 0.00 0.00 85 1013.9
20260905124804 62 228 0.0 0.0 0.00 0.00 0.00 85 1013.9
20260905124031 63 228 0.0 0.0 0.00 0.00 0.00 85 1013.9
20260905123529 62 228 0.0 0.0 0.00 0.00 0.00 85 1013.9
20260905123300 62 228 0.0 0.0 0.00 0.00 0.00 85 1013.8
20260905122527 63 228 0.0 0.0 0.00 0.00 0.00 85 1013.8
20260905122025 62 228 0.0 0.0 0.00 0.00 0.00 85 1013.9
20260905121522 62 228 0.0 0.0 0.00 0.00 0.00 85 1013.9
20260905121023 62 228 0.0 0.0 0.00 0.00 0.00 84 1013.9
20260905120524 62 228 0.0 0.0 0.00 0.00 0.00 84 1013.9
20260905120025 62 228 0.0 0.0 0.00 0.00 0.00 84 1013.9
20260905115520 62 228 0.0 0.0 0.00 0.00 0.00 84 1013.8
20260905115024 62 228 0.0 0.0 0.00 0.00 0.00 84 1013.9
20260905114520 63 228 0.0 0.0 0.00 0.00 0.00 84 1013.9
20260905114020 63 228 0.0 0.0 0.00 0.00 0.00 84 1013.9
20260905113518 63 228 0.0 0.0 0.00 0.00 0.00 84 1013.9
20260905113018 63 228 0.0 0.0 0.00 0.00 0.00 84 1013.8
20260905112520 63 228 0.0 0.0 0.00 0.00 0.00 83 1013.9
20260905112009 63 228 0.0 0.0 0.00 0.00 0.00 84 1013.9
20260905111509 63 228 0.0 0.0 0.00 0.00 0.00 83 1014.0
20260905111253 63 228 0.0 0.0 0.00 0.00 0.00 83 1013.9
20260905110505 63 228 0.0 0.0 0.00 0.00 0.00 83 1014.0
20260905110006 64 228 0.0 0.0 0.00 0.00 0.00 83 1014.0
20260905105515 64 228 0.0 0.0 0.00 0.00 0.00 83 1014.0
20260905105001 64 228 0.0 0.0 0.00 0.00 0.00 83 1014.0
20260905104501 64 228 0.0 0.0 0.00 0.00 0.00 82 1014.0
20260905103959 64 228 0.0 0.0 0.00 0.00 0.00 82 1014.1
20260905103500 64 228 0.0 0.0 0.00 0.00 0.00 82 1014.0
20260905102500 64 228 0.0 0.0 0.00 0.00 0.00 81 1014.1
20260905101957 64 228 0.0 0.0 0.00 0.00 0.00 82 1014.1
20260905100955 64 228 0.0 0.0 0.00 0.00 0.00 81 1014.0
20260905100452 64 228 0.0 0.0 0.00 0.00 0.00 81 1014.1
20260905095953 65 228 0.0 0.0 0.00 0.00 0.00 81 1014.1
20260905095449 65 228 0.0 0.0 0.00 0.00 0.00 80 1014.1
20260905095220 65 228 0.0 0.9 0.00 0.00 0.00 80 1014.1
20260905094449 65 228 0.0 0.9 0.00 0.00 0.00 80 1014.1
20260905093946 65 228 0.0 0.9 0.00 0.00 0.00 79 1014.1
20260905093444 65 228 0.0 0.0 0.00 0.00 0.00 79 1014.1
20260905092945 65 228 0.0 0.0 0.00 0.00 0.00 79 1014.0
20260905092444 65 228 0.0 0.0 0.00 0.00 0.00 79 1014.1
20260905092213 65 228 0.0 0.0 0.00 0.00 0.00 80 1014.0
20260905091712 65 228 0.0 0.0 0.00 0.00 0.00 79 1014.0
20260905090940 65 228 0.0 0.0 0.00 0.00 0.00 79 1014.1
20260905090442 65 228 0.0 0.9 0.00 0.00 0.00 79 1014.1
20260905085941 65 228 0.0 0.9 0.00 0.00 0.00 78 1014.2
20260905085709 65 228 0.0 0.0 0.00 0.00 0.00 79 1014.2